Find STARLINK-37663

NORAD ID: 70636 Constellation: starlink operational
LEOCIRCULARRETROGRADE

Live-Position

3D-Globus wird geladen...

Über STARLINK-37663

Beschreibung wird geladen...

Nächste Überflüge

Passes for default location (London). Set your location on the main map for personalized predictions.

Höhenverlauf

Loading altitude history...

Zweizeiliger Elementsatz

1 70636C 26101Z 26126.33243056 .00328460 00000+0 51271-3 0 1268
2 70636 97.2846 339.8749 0010183 256.9907 109.2360 16.03781055 12
Epoch: 6. Mai 2026 • Age: 18 hours